EW9959 Weather Reports


Display with metric or nautical units.
time (UTC)temp
F
wind
direction
speed
MPH
gust
MPH
rain 1hr
in
rain 24hr
in
rain mn
in
humidity
%
barometer
mb
20260505120405 48 270 0.0 2.0 0.00 0.00 0.00 99 988.2
20260505110904 48 297 1.0 2.0 0.00 0.00 0.00 98 987.3
20260505110404 48 258 1.0 2.0 0.00 0.00 0.00 97 987.4
20260505100905 49 231 1.0 2.0 0.00 0.00 0.00 94 987.2
20260505100405 48 270 1.0 2.0 0.00 0.00 0.00 96 987.2
20260505090905 47 202 0.0 0.0 0.00 0.00 0.00 96 987.3
20260505090405 47 189 0.0 1.0 0.00 0.00 0.00 95 987.7
20260505080904 46 261 1.0 2.0 0.00 0.00 0.00 98 987.6
20260505080405 47 203 0.0 0.0 0.00 0.00 0.00 97 987.3
20260505070905 48 185 1.0 1.0 0.00 0.00 0.00 93 987.5
20260505070405 49 202 1.0 2.0 0.00 0.00 0.00 93 987.3
20260505060905 50 265 1.0 2.0 0.00 0.00 0.00 92 987.4
20260505060405 51 281 0.0 2.0 0.00 0.00 0.00 89 987.5
20260505050904 51 179 0.0 0.0 0.00 0.00 0.00 89 987.8
20260505050406 51 180 0.0 1.0 0.00 0.00 0.00 87 987.7
20260505040904 53 180 1.0 1.0 0.00 0.00 0.00 82 987.6
20260505040404 53 194 0.0 2.0 0.00 0.00 0.00 82 987.6
20260505030904 55 180 0.0 0.0 0.00 0.00 0.00 80 987.8
20260505030405 55 180 1.0 2.0 0.00 0.00 0.00 80 987.6
20260505020904 57 180 1.0 1.0 0.00 0.00 0.00 74 987.7
20260505020405 58 180 0.0 3.0 0.00 0.00 0.00 76 987.5
20260505010905 60 180 0.0 0.0 0.00 0.00 0.00 75 987.0
20260505010406 61 180 0.0 1.0 0.00 0.00 0.00 74 986.9
20260505000904 69 197 0.0 1.0 0.00 0.00 0.00 56 986.5
20260504230904 76 211 2.0 6.0 0.00 0.00 0.00 43 986.7
20260504230406 78 303 2.0 7.0 0.00 0.00 0.00 40 986.7
20260504220904 79 244 3.0 5.0 0.00 0.00 0.00 37 986.9
20260504220405 78 199 3.0 6.0 0.00 0.00 0.00 38 986.9
20260504210904 79 305 3.0 6.0 0.00 0.00 0.00 37 986.8
20260504210405 77 340 2.0 9.0 0.00 0.00 0.00 41 987.0
20260504200904 78 248 3.0 5.0 0.00 0.00 0.00 37 987.4
20260504200404 79 240 2.0 9.0 0.00 0.00 0.00 37 987.6
20260504190905 77 137 2.0 3.0 0.00 0.00 0.00 38 988.5
20260504190405 78 262 3.0 7.0 0.00 0.00 0.00 37 988.5
20260504180904 79 330 3.0 5.0 0.00 0.00 0.00 37 989.3
20260504180404 77 214 2.0 8.0 0.00 0.00 0.00 39 989.6
20260504170904 78 205 3.0 5.0 0.00 0.00 0.00 37 990.2
20260504170404 76 331 2.0 8.0 0.00 0.00 0.00 39 990.5
20260504160404 72 253 2.0 7.0 0.00 0.00 0.00 46 991.1
20260504150905 68 147 3.0 7.0 0.00 0.00 0.00 51 991.2
20260504150405 68 299 3.0 9.0 0.00 0.00 0.00 49 991.4
20260504140905 63 270 3.0 5.0 0.00 0.00 0.00 65 991.7
20260504130404 46 287 0.0 0.0 0.00 0.00 0.00 99 991.8